CES250 LEBL-ZSPD

Flight info

Callsign CES250
Flight time N/A
Altitude 32000
Route DIPES DCT TOSNU DCT LAPIT N725 OSPOK DCT NOLVI/N0499F330 DCT ORKUM/N0493F340 DCT ELSAG DCT POKAV/N0497F330 DCT SOR DCT PEREN DCT ALX DCT EKI DCT INB DCT SIN DCT ROLIN/N0494F350 DCT LAGAS M747 LUSAL N199 RASAM L88 METKA B476 DARVA/K0898F350 T898 OGOLI N193 SR L163 TISIB L141 DIPAX/K0904F370 L141 KAMUD/K0898S1130 W186 SADAN W187 TUSLI W112 VIKUP W191 DNC W565 BIGUX W214 XOGAB/K0891S1190 W214 HO DCT 343580N1083160E 342270N1083520E 340320N1084070E DCT UGSUT DCT 334410N1094200E 333220N1105190E 332320N1111680E DCT FYG B208 HFE R343 SASAN SAS82A
Aircraft A359/H-SDE2E3GHIJ3J4J5LM1ORWXY/LB1D1

Departure

Time N/A
Airport Josep Tarradellas Barcelona-El Prat Airport (LEBL)

Arrival

Time 2026-05-05 06:04
Airport Shanghai Pudong International Airport (ZSPD)
Time Latitude Longitude Altitude Speed Heading
2026-05-05 05:32 31.65574 118.97010 38995 ft 547 kts 96°
2026-05-05 05:33 31.64904 119.05909 38996 ft 548 kts 95°
2026-05-05 05:33 31.64413 119.14765 38673 ft 544 kts 94°
2026-05-05 05:34 31.64220 119.19205 37852 ft 546 kts 93°
2026-05-05 05:34 31.64044 119.23654 37091 ft 546 kts 93°
2026-05-05 05:34 31.63869 119.28115 36333 ft 547 kts 93°
2026-05-05 05:34 31.63687 119.32524 35589 ft 548 kts 94°
2026-05-05 05:35 31.63524 119.36320 35150 ft 545 kts 94°
2026-05-05 05:35 31.63445 119.38098 34932 ft 543 kts 94°
2026-05-05 05:35 31.63312 119.41009 34602 ft 540 kts 94°
2026-05-05 05:35 31.63107 119.45381 34106 ft 535 kts 94°
2026-05-05 05:36 31.62833 119.51131 33389 ft 528 kts 94°
2026-05-05 05:36 31.62626 119.55414 32874 ft 523 kts 94°
2026-05-05 05:36 31.62420 119.59652 32412 ft 517 kts 94°
2026-05-05 05:36 31.62282 119.62492 32085 ft 513 kts 94°
2026-05-05 05:37 31.62080 119.66610 31618 ft 509 kts 94°
2026-05-05 05:37 31.61882 119.70728 31158 ft 504 kts 94°
2026-05-05 05:37 31.61694 119.74817 30697 ft 499 kts 93°
2026-05-05 05:37 31.61508 119.78868 30240 ft 495 kts 93°
2026-05-05 05:38 31.61323 119.82888 29735 ft 490 kts 93°
2026-05-05 05:38 31.61138 119.86869 29273 ft 484 kts 93°
2026-05-05 05:38 31.60955 119.90789 28828 ft 478 kts 93°
2026-05-05 05:38 31.60772 119.94666 28401 ft 472 kts 93°
2026-05-05 05:39 31.60593 119.98439 27965 ft 467 kts 93°
2026-05-05 05:39 31.60412 120.02222 27528 ft 461 kts 93°
2026-05-05 05:39 31.60233 120.05960 27103 ft 456 kts 93°
2026-05-05 05:39 31.60053 120.09658 26677 ft 452 kts 93°
2026-05-05 05:40 31.59875 120.13322 26253 ft 447 kts 94°
2026-05-05 05:40 31.59698 120.16943 25840 ft 443 kts 94°
2026-05-05 05:40 31.59521 120.20531 25421 ft 439 kts 94°
2026-05-05 05:40 31.59345 120.24087 25007 ft 435 kts 94°
2026-05-05 05:41 31.59170 120.27619 24589 ft 431 kts 94°
2026-05-05 05:41 31.58940 120.31113 24165 ft 427 kts 98°
2026-05-05 05:41 31.58232 120.34468 23775 ft 421 kts 109°
2026-05-05 05:41 31.57295 120.37707 23333 ft 418 kts 110°
2026-05-05 05:42 31.56341 120.40900 22902 ft 413 kts 110°
2026-05-05 05:42 31.55397 120.44065 22499 ft 408 kts 110°
2026-05-05 05:42 31.54478 120.47152 22095 ft 404 kts 110°
2026-05-05 05:42 31.53559 120.50249 21694 ft 400 kts 110°
2026-05-05 05:43 31.52647 120.53324 21294 ft 396 kts 110°
2026-05-05 05:43 31.51745 120.56368 20892 ft 393 kts 110°
2026-05-05 05:43 31.50850 120.59386 20503 ft 390 kts 110°
2026-05-05 05:43 31.49965 120.62371 20109 ft 387 kts 110°
2026-05-05 05:44 31.49091 120.65312 19720 ft 385 kts 110°
2026-05-05 05:44 31.48215 120.68263 19340 ft 382 kts 110°
2026-05-05 05:44 31.47342 120.71196 18943 ft 380 kts 110°
2026-05-05 05:44 31.46473 120.74113 18547 ft 378 kts 110°
2026-05-05 05:45 31.45607 120.77016 18140 ft 376 kts 110°
2026-05-05 05:45 31.44746 120.79904 17740 ft 373 kts 110°
2026-05-05 05:45 31.43871 120.82767 17360 ft 370 kts 111°
2026-05-05 05:45 31.42990 120.85580 16968 ft 367 kts 111°
2026-05-05 05:46 31.42113 120.88380 16589 ft 364 kts 111°
2026-05-05 05:46 31.41246 120.91154 16217 ft 362 kts 111°
2026-05-05 05:46 31.40562 120.93976 15829 ft 360 kts 98°
2026-05-05 05:46 31.40644 120.96832 15532 ft 358 kts 76°
2026-05-05 05:47 31.41376 120.99673 15299 ft 371 kts 69°
2026-05-05 05:47 31.42244 121.02533 15016 ft 373 kts 69°
2026-05-05 05:47 31.43118 121.05399 14776 ft 372 kts 69°
2026-05-05 05:47 31.43977 121.08239 14522 ft 370 kts 69°
2026-05-05 05:48 31.44705 121.11117 14260 ft 369 kts 79°
2026-05-05 05:48 31.44765 121.14102 14009 ft 367 kts 95°
2026-05-05 05:48 31.44465 121.17058 13728 ft 365 kts 98°
2026-05-05 05:48 31.44124 121.20003 13470 ft 363 kts 98°
2026-05-05 05:49 31.43794 121.22934 13222 ft 362 kts 97°
2026-05-05 05:49 31.43471 121.25843 12967 ft 360 kts 97°
2026-05-05 05:49 31.43154 121.28742 12718 ft 358 kts 97°
2026-05-05 05:49 31.42840 121.31619 12512 ft 353 kts 97°
2026-05-05 05:50 31.42533 121.34420 12354 ft 341 kts 97°
2026-05-05 05:50 31.42239 121.37122 12182 ft 329 kts 97°
2026-05-05 05:50 31.41950 121.39751 11938 ft 321 kts 97°
2026-05-05 05:50 31.41634 121.42332 11564 ft 318 kts 102°
2026-05-05 05:51 31.40792 121.44681 11200 ft 312 kts 128°
2026-05-05 05:51 31.39187 121.46307 10865 ft 304 kts 154°
2026-05-05 05:51 31.37233 121.47200 10483 ft 300 kts 163°
2026-05-05 05:51 31.35256 121.47932 10189 ft 296 kts 163°
2026-05-05 05:52 31.33305 121.48655 9920 ft 294 kts 163°
2026-05-05 05:52 31.31362 121.49384 9644 ft 292 kts 163°
2026-05-05 05:52 31.29483 121.50094 9479 ft 282 kts 163°
2026-05-05 05:52 31.27644 121.50792 9259 ft 274 kts 162°
2026-05-05 05:53 31.25862 121.51519 8995 ft 268 kts 157°
2026-05-05 05:53 31.24364 121.52770 8750 ft 266 kts 130°
2026-05-05 05:53 31.23551 121.54690 8429 ft 267 kts 101°
2026-05-05 05:53 31.23638 121.56837 8147 ft 265 kts 75°
2026-05-05 05:54 31.24216 121.58878 7911 ft 265 kts 65°
2026-05-05 05:54 31.25307 121.60591 7675 ft 264 kts 39°
2026-05-05 05:54 31.26937 121.61519 7437 ft 260 kts
2026-05-05 05:54 31.28728 121.61450 7226 ft 258 kts 344°
2026-05-05 05:55 31.30444 121.60844 6980 ft 258 kts 339°
2026-05-05 05:55 31.32190 121.60149 6808 ft 270 kts 339°
2026-05-05 05:55 31.33978 121.59439 6606 ft 272 kts 340°
2026-05-05 05:55 31.35768 121.58744 6353 ft 271 kts 340°
2026-05-05 05:56 31.37567 121.58183 6080 ft 272 kts 353°
2026-05-05 05:56 31.39415 121.58582 5881 ft 267 kts 28°
2026-05-05 05:56 31.40678 121.60029 5677 ft 255 kts 64°
2026-05-05 05:56 31.41166 121.61960 5558 ft 242 kts 81°
2026-05-05 05:57 31.41447 121.63861 5402 ft 232 kts 81°
2026-05-05 05:57 31.41729 121.65706 5150 ft 229 kts 81°
2026-05-05 05:57 31.41828 121.67537 4876 ft 222 kts 103°
2026-05-05 05:57 31.41114 121.68992 4689 ft 203 kts 146°
2026-05-05 05:58 31.39894 121.69654 4543 ft 189 kts 165°
2026-05-05 05:58 31.38650 121.70078 4277 ft 186 kts 165°
2026-05-05 05:58 31.37416 121.70532 4066 ft 184 kts 164°
2026-05-05 05:58 31.36199 121.70991 3976 ft 184 kts 165°
2026-05-05 05:59 31.34992 121.71439 3840 ft 177 kts 163°
2026-05-05 05:59 31.33839 121.71874 3629 ft 171 kts 164°
2026-05-05 05:59 31.32722 121.72302 3389 ft 167 kts 163°
2026-05-05 05:59 31.31639 121.72714 3167 ft 161 kts 164°
2026-05-05 06:00 31.30586 121.73114 2949 ft 156 kts 163°
2026-05-05 06:00 31.29563 121.73503 2747 ft 158 kts 163°
2026-05-05 06:00 31.28529 121.73896 2545 ft 153 kts 164°
2026-05-05 06:00 31.27546 121.74269 2348 ft 144 kts 164°
2026-05-05 06:01 31.26603 121.74626 2155 ft 142 kts 163°
2026-05-05 06:01 31.25684 121.74977 1979 ft 137 kts 164°
2026-05-05 06:01 31.24784 121.75317 1805 ft 135 kts 162°
2026-05-05 06:01 31.23892 121.75655 1633 ft 134 kts 162°
2026-05-05 06:02 31.22993 121.75999 1439 ft 137 kts 164°
2026-05-05 06:02 31.22081 121.76350 1266 ft 139 kts 164°
2026-05-05 06:02 31.21165 121.76695 1095 ft 139 kts 163°
2026-05-05 06:02 31.20269 121.77056 858 ft 133 kts 165°
2026-05-05 06:03 31.19393 121.77366 695 ft 135 kts 167°
2026-05-05 06:03 31.18469 121.77708 582 ft 143 kts 162°
2026-05-05 06:03 31.17541 121.78066 322 ft 136 kts 163°
2026-05-05 06:03 31.16648 121.78397 151 ft 135 kts 162°
2026-05-05 06:04 31.15738 121.78745 51 ft 139 kts 162°
2026-05-05 06:04 31.14874 121.79078 31 ft 114 kts 162°
2026-05-05 06:04 31.14294 121.79291 28 ft 60 kts 162°
2026-05-05 06:04 31.14004 121.79402 26 ft 39 kts 162°
2026-05-05 06:05 31.13781 121.79550 28 ft 33 kts 136°
2026-05-05 06:05 31.13694 121.79685 29 ft 20 kts 112°
2026-05-05 06:05 31.13736 121.79794 29 ft 16 kts 62°
2026-05-05 06:05 31.13766 121.79905 29 ft 14 kts 76°
2026-05-05 06:06 31.13795 121.79992 29 ft 9 kts 54°
2026-05-05 06:06 31.13817 121.80010 29 ft 0 kts 30°
2026-05-05 06:08 31.13823 121.80013 29 ft 2 kts 30°
2026-05-05 06:08 31.13840 121.80038 29 ft 5 kts 69°
2026-05-05 06:09 31.13846 121.80074 29 ft 7 kts 76°
2026-05-05 06:09 31.13857 121.80114 29 ft 2 kts 72°
2026-05-05 06:09 31.13860 121.80124 29 ft 0 kts 72°